K5KTF-WX Weather Reports


time (UTC)temp
F
wind
direction
speed
knots
gust
knots
rain 1hr
in
rain 24hr
in
rain mn
in
humidity
%
barometer
mb
20211017160030 66 106 1.7 5.2 0.00 0.00 0.00 40 1027.6
20211017154532 65 87 0.0 3.5 0.00 0.00 0.00 43 1027.7
20211017153037 65 107 0.0 2.6 0.00 0.00 0.00 43 1027.7
20211017151557 63 67 0.9 1.7 0.00 0.00 0.00 46 1027.8
20211017150057 62 92 0.0 1.7 0.00 0.00 0.00 52 1027.8
20211017144540 60 0 0.0 0.9 0.00 0.00 0.00 59 1027.6
20211017143040 57 0 0.0 0.9 0.00 0.00 0.00 59 1027.6
20211017141533 56 254 0.0 0.9 0.00 0.00 0.00 62 1027.6
20211017140039 53 0 0.0 0.9 0.00 0.00 0.00 69 1027.4
20211017134639 50 0 0.0 0.0 0.00 0.00 0.00 72 1027.1
20211017133026 48 0 0.0 0.0 0.00 0.00 0.00 72 1027.0
20211017131622 47 0 0.0 0.0 0.00 0.00 0.00 72 1027.0
20211017130051 45 0 0.0 0.9 0.00 0.00 0.00 74 1026.9
20211017124532 44 0 0.0 0.0 0.00 0.00 0.00 79 1027.1
20211017123042 43 0 0.0 0.0 0.00 0.00 0.00 83 1027.0
20211017121635 44 0 0.0 0.9 0.00 0.00 0.00 82 1027.0
20211017120035 44 0 0.0 0.0 0.00 0.00 0.00 82 1026.8
20211017114534 44 0 0.0 0.0 0.00 0.00 0.00 80 1026.7
20211017113108 43 0 0.0 0.0 0.00 0.00 0.00 79 1026.5
20211017111557 44 0 0.0 0.0 0.00 0.00 0.00 80 1026.2
20211017110045 44 0 0.0 0.0 0.00 0.00 0.00 81 1026.2
20211017104543 44 0 0.0 0.0 0.00 0.00 0.00 82 1025.9
20211017103050 45 0 0.0 0.0 0.00 0.00 0.00 75 1025.9
20211017101530 45 0 0.0 0.0 0.00 0.00 0.00 76 1026.0
20211017100049 46 0 0.0 0.0 0.00 0.00 0.00 73 1025.9
20211017094618 47 0 0.0 0.0 0.00 0.00 0.00 71 1025.9
20211017093112 48 0 0.0 0.0 0.00 0.00 0.00 69 1026.0
20211017091543 48 0 0.0 0.0 0.00 0.00 0.00 69 1026.1
20211017090029 47 0 0.0 0.0 0.00 0.00 0.00 73 1026.1
20211017084552 47 0 0.0 0.0 0.00 0.00 0.00 70 1026.4
20211017083033 47 0 0.0 0.0 0.00 0.00 0.00 70 1026.4
20211017081535 48 0 0.0 0.0 0.00 0.00 0.00 69 1026.6
20211017080116 49 0 0.0 0.0 0.00 0.00 0.00 68 1026.7
20211017074535 49 0 0.0 0.9 0.00 0.00 0.00 69 1026.7
20211017073032 49 0 0.0 0.0 0.00 0.00 0.00 70 1026.7
20211017071556 49 0 0.0 0.0 0.00 0.00 0.00 69 1026.7
20211017070105 48 0 0.0 0.0 0.00 0.00 0.00 70 1026.8
20211017064544 46 0 0.0 0.0 0.00 0.00 0.00 73 1026.6
20211017063037 47 0 0.0 0.0 0.00 0.00 0.00 73 1026.6
20211017061537 47 0 0.0 0.0 0.00 0.00 0.00 73 1026.6
20211017060027 47 0 0.0 0.0 0.00 0.00 0.00 73 1026.6
20211017054559 47 0 0.0 0.0 0.00 0.00 0.00 75 1026.6
20211017053049 48 0 0.0 0.0 0.00 0.00 0.00 73 1026.6
20211017051546 49 0 0.0 0.0 0.00 0.00 0.00 71 1026.8
20211017050109 48 0 0.0 0.0 0.00 0.00 0.00 71 1026.8
20211017044530 49 0 0.0 0.0 0.00 0.00 0.00 70 1026.8
20211017043053 49 0 0.0 0.0 0.00 0.00 0.00 71 1026.8
20211017041635 49 0 0.0 0.0 0.00 0.00 0.00 69 1026.9
20211017040040 51 0 0.0 0.0 0.00 0.00 0.00 68 1026.8
20211017034529 51 0 0.0 0.0 0.00 0.00 0.00 68 1026.7
20211017033115 51 0 0.0 0.0 0.00 0.00 0.00 65 1026.6
20211017031538 52 0 0.0 0.0 0.00 0.00 0.00 63 1026.6
20211017030050 54 0 0.0 0.0 0.00 0.00 0.00 58 1026.6
20211017024548 56 0 0.0 0.0 0.00 0.00 0.00 53 1026.4
20211017023125 58 0 0.0 0.0 0.00 0.00 0.00 49 1026.2
20211017021605 59 0 0.0 0.9 0.00 0.00 0.00 47 1026.0
20211017020048 59 0 0.0 0.9 0.00 0.00 0.00 47 1026.0
20211017014550 59 145 0.0 0.9 0.00 0.00 0.00 46 1026.0
20211017013053 59 0 0.0 0.9 0.00 0.00 0.00 46 1025.8
20211017011532 60 0 0.0 0.9 0.00 0.00 0.00 45 1025.7
20211017010033 60 0 0.0 0.0 0.00 0.00 0.00 46 1025.7
20211017004534 61 0 0.0 0.9 0.00 0.00 0.00 44 1025.6
20211017003033 62 0 0.0 0.9 0.00 0.00 0.00 43 1025.6
20211017001546 63 0 0.0 0.9 0.00 0.00 0.00 39 1025.4
20211017000040 65 18 0.0 1.7 0.00 0.00 0.00 38 1025.3
20211016234553 66 277 0.0 1.7 0.00 0.00 0.00 37 1025.3
20211016233033 69 114 0.0 0.9 0.00 0.00 0.00 35 1025.2
20211016231529 70 36 0.0 4.3 0.00 0.00 0.00 33 1025.3
20211016230140 71 83 0.9 5.2 0.00 0.00 0.00 33 1025.3
20211016224530 71 53 0.0 2.6 0.00 0.00 0.00 32 1025.4
20211016223057 72 59 0.9 4.3 0.00 0.00 0.00 31 1025.3
20211016221547 72 84 0.9 10.4 0.00 0.00 0.00 31 1025.2
20211016220040 73 284 0.9 7.8 0.00 0.00 0.00 30 1025.3
20211016214633 74 9 0.0 7.8 0.00 0.00 0.00 30 1025.4
20211016213038 74 34 0.9 3.5 0.00 0.00 0.00 28 1025.6
20211016211549 73 84 0.9 6.1 0.00 0.00 0.00 29 1025.8
20211016210116 73 321 1.7 7.8 0.00 0.00 0.00 30 1025.6
20211016204602 74 128 0.9 7.8 0.00 0.00 0.00 29 1025.5
20211016203059 74 48 0.9 4.3 0.00 0.00 0.00 29 1026.0
20211016201552 74 26 0.9 3.5 0.00 0.00 0.00 30 1026.1
20211016200050 73 17 0.9 7.8 0.00 0.00 0.00 29 1026.2
20211016194539 73 57 1.7 6.1 0.00 0.00 0.00 31 1026.4
20211016193046 73 46 1.7 7.8 0.00 0.00 0.00 30 1026.7
20211016191619 72 13 0.9 7.8 0.00 0.00 0.00 30 1026.8
20211016190118 71 53 1.7 8.7 0.00 0.00 0.00 32 1027.2
20211016184610 72 107 0.9 7.0 0.00 0.00 0.00 33 1027.4
20211016183104 71 301 0.9 9.6 0.00 0.00 0.00 34 1027.7
20211016181606 71 102 0.9 6.1 0.00 0.00 0.00 34 1027.9
20211016180101 70 87 1.7 6.1 0.00 0.00 0.00 35 1028.3
20211016174555 70 24 0.9 11.3 0.00 0.00 0.00 38 1028.6
20211016173100 69 284 0.9 10.4 0.00 0.00 0.00 37 1028.6
20211016171613 69 330 2.6 9.6 0.00 0.00 0.00 35 1028.7
20211016170051 68 18 0.9 9.6 0.00 0.00 0.00 39 1028.8
20211016164636 68 344 0.9 9.6 0.00 0.00 0.00 37 1028.9
20211016163039 67 15 1.7 5.2 0.00 0.00 0.00 37 1029.0
20211016161530 66 21 2.6 9.6 0.00 0.00 0.00 37 1029.0